FW5282 Weather Reports


Display with metric or nautical units.
time (UTC)temp
F
wind
direction
speed
MPH
gust
MPH
rain 1hr
in
rain 24hr
in
rain mn
in
humidity
%
barometer
mb
20260906133046 88 155 0.0 12.0 0.00 0.00 0.00 32 1019.0
20260906132535 88 184 6.0 12.0 0.00 0.00 0.00 32 1019.1
20260906132059 87 146 5.0 10.0 0.00 0.00 0.00 33 1019.1
20260906131547 87 198 1.0 11.0 0.00 0.00 0.00 35 1019.1
20260906131040 86 194 4.0 12.0 0.00 0.00 0.00 34 1019.2
20260906130613 86 152 7.0 12.0 0.00 0.00 0.00 34 1019.4
20260906130042 86 142 5.0 9.0 0.00 0.00 0.00 35 1019.3
20260906125533 85 165 4.0 8.0 0.00 0.00 0.00 37 1019.3
20260906125057 85 153 4.0 11.0 0.00 0.00 0.00 37 1019.4
20260906124554 85 126 8.0 11.0 0.00 0.00 0.00 35 1019.4
20260906124042 85 139 5.0 10.0 0.00 0.00 0.00 36 1019.5
20260906123532 85 109 4.0 12.0 0.00 0.00 0.00 36 1019.6
20260906123032 85 140 7.0 12.0 0.00 0.00 0.00 37 1019.7
20260906122545 85 155 4.0 11.0 0.00 0.00 0.00 35 1019.6
20260906122031 86 140 4.0 12.0 0.00 0.00 0.00 34 1019.5
20260906121608 86 130 6.0 12.0 0.00 0.00 0.00 34 1019.6
20260906121044 86 157 7.0 11.0 0.00 0.00 0.00 35 1019.6
20260906120558 85 151 7.0 15.0 0.00 0.00 0.00 35 1019.6
20260906120042 85 66 8.0 15.0 0.00 0.00 0.00 35 1019.6
20260906115532 85 137 7.0 12.0 0.00 0.00 0.00 37 1019.7
20260906115102 84 123 6.0 12.0 0.00 0.00 0.00 38 1019.6
20260906114533 84 131 7.0 11.0 0.00 0.00 0.00 37 1019.7
20260906114044 84 98 3.0 12.0 0.00 0.00 0.00 40 1019.7
20260906113533 83 87 4.0 12.0 0.00 0.00 0.00 41 1019.6
20260906113043 82 105 6.0 11.0 0.00 0.00 0.00 42 1019.6
20260906112533 82 86 5.0 11.0 0.00 0.00 0.00 42 1019.6
20260906112039 82 134 6.0 11.0 0.00 0.00 0.00 42 1019.7
20260906111543 81 75 3.0 9.0 0.00 0.00 0.00 42 1019.7
20260906111037 81 48 4.0 10.0 0.00 0.00 0.00 43 1019.8
20260906110527 81 49 3.0 10.0 0.00 0.00 0.00 42 1020.0
20260906110051 81 49 4.0 6.0 0.00 0.00 0.00 42 1020.1
20260906105609 81 76 3.0 8.0 0.00 0.00 0.00 44 1020.2
20260906105038 81 138 2.0 9.0 0.00 0.00 0.00 44 1020.3
20260906104531 81 78 3.0 9.0 0.00 0.00 0.00 44 1020.2
20260906104041 80 103 4.0 8.0 0.00 0.00 0.00 45 1020.2
20260906103538 80 117 4.0 8.0 0.00 0.00 0.00 45 1020.3
20260906103029 80 88 4.0 7.0 0.00 0.00 0.00 45 1020.4
20260906102545 80 126 3.0 8.0 0.00 0.00 0.00 44 1020.3
20260906102034 80 134 2.0 8.0 0.00 0.00 0.00 44 1020.5
20260906101551 80 114 3.0 8.0 0.00 0.00 0.00 44 1020.7
20260906101037 80 138 4.0 10.0 0.00 0.00 0.00 44 1020.9
20260906100555 80 162 4.0 10.0 0.00 0.00 0.00 44 1021.0
20260906100045 80 91 6.0 11.0 0.00 0.00 0.00 45 1021.1
20260906095536 79 111 7.0 13.0 0.00 0.00 0.00 45 1021.1
20260906095057 79 128 9.0 13.0 0.00 0.00 0.00 44 1021.2
20260906094534 80 134 7.0 12.0 0.00 0.00 0.00 44 1021.2
20260906094039 79 128 5.0 11.0 0.00 0.00 0.00 45 1021.0
20260906093600 79 60 5.0 10.0 0.00 0.00 0.00 47 1021.1
20260906093030 78 105 6.0 9.0 0.00 0.00 0.00 47 1021.2
20260906092608 77 77 5.0 11.0 0.00 0.00 0.00 49 1021.2
20260906092045 77 101 6.0 10.0 0.00 0.00 0.00 46 1021.3
20260906091533 77 107 6.0 11.0 0.00 0.00 0.00 48 1021.2
20260906091035 76 114 5.0 10.0 0.00 0.00 0.00 50 1021.2
20260906090612 75 94 7.0 10.0 0.00 0.00 0.00 50 1021.2
20260906090035 75 93 5.0 8.0 0.00 0.00 0.00 51 1021.3
20260906085542 74 138 5.0 10.0 0.00 0.00 0.00 52 1021.3
20260906085038 74 82 7.0 10.0 0.00 0.00 0.00 52 1021.3
20260906084533 73 108 6.0 10.0 0.00 0.00 0.00 53 1021.4
20260906084041 73 123 5.0 10.0 0.00 0.00 0.00 54 1021.5
20260906083532 73 120 7.0 10.0 0.00 0.00 0.00 53 1021.7
20260906083101 72 142 6.0 9.0 0.00 0.00 0.00 55 1021.8
20260906082556 72 136 6.0 9.0 0.00 0.00 0.00 55 1021.8
20260906082043 72 84 3.0 8.0 0.00 0.00 0.00 55 1021.9
20260906081536 72 88 6.0 8.0 0.00 0.00 0.00 54 1021.9
20260906081042 72 112 4.0 10.0 0.00 0.00 0.00 58 1021.8
20260906080618 71 98 5.0 10.0 0.00 0.00 0.00 57 1021.9
20260906080045 70 84 6.0 9.0 0.00 0.00 0.00 59 1022.0
20260906075534 69 93 4.0 9.0 0.00 0.00 0.00 61 1022.1
20260906075044 68 65 5.0 9.0 0.00 0.00 0.00 61 1022.1
20260906074534 68 78 2.0 8.0 0.00 0.00 0.00 62 1022.0
20260906074034 68 146 4.0 8.0 0.00 0.00 0.00 61 1022.0
20260906073544 68 120 4.0 8.0 0.00 0.00 0.00 62 1022.0
20260906073034 67 86 3.0 8.0 0.00 0.00 0.00 62 1022.1
20260906072540 66 142 5.0 8.0 0.00 0.00 0.00 64 1022.5
20260906072030 65 128 4.0 7.0 0.00 0.00 0.00 66 1022.6
20260906071541 64 93 2.0 4.0 0.00 0.00 0.00 69 1022.6
20260906071027 63 92 2.0 6.0 0.00 0.00 0.00 70 1022.6
20260906070541 62 121 3.0 6.0 0.00 0.00 0.00 73 1022.6
20260906070033 61 71 2.0 3.0 0.00 0.00 0.00 73 1022.6
20260906065529 60 57 1.0 2.0 0.00 0.00 0.00 74 1022.6
20260906065041 59 55 0.0 3.0 0.00 0.00 0.00 75 1022.7
20260906064600 59 72 1.0 3.0 0.00 0.00 0.00 76 1022.6
20260906064052 58 49 1.0 2.0 0.00 0.00 0.00 77 1022.5
20260906063541 58 58 1.0 2.0 0.00 0.00 0.00 77 1022.6
20260906063031 57 44 1.0 2.0 0.00 0.00 0.00 78 1022.7
20260906062545 57 20 1.0 2.0 0.00 0.00 0.00 78 1022.8
20260906062035 57 19 0.0 1.0 0.00 0.00 0.00 78 1022.9
20260906061545 56 12 1.0 1.0 0.00 0.00 0.00 79 1022.9
20260906061037 56 355 1.0 1.0 0.00 0.00 0.00 79 1022.9
20260906060541 55 9 0.0 1.0 0.00 0.00 0.00 79 1022.7
20260906060030 55 15 0.0 2.0 0.00 0.00 0.00 79 1022.6
20260906055541 55 31 1.0 2.0 0.00 0.00 0.00 80 1022.5
20260906055033 55 23 1.0 3.0 0.00 0.00 0.00 80 1022.5
20260906054544 55 18 2.0 3.0 0.00 0.00 0.00 80 1022.5
20260906054033 55 26 1.0 2.0 0.00 0.00 0.00 80 1022.5
20260906053526 55 19 1.0 2.0 0.00 0.00 0.00 80 1022.5
20260906053044 54 33 1.0 2.0 0.00 0.00 0.00 81 1022.5
20260906052540 54 28 1.0 2.0 0.00 0.00 0.00 81 1022.6
20260906052031 54 355 0.0 1.0 0.00 0.00 0.00 81 1022.7
20260906051542 54 319 0.0 1.0 0.00 0.00 0.00 81 1022.8
20260906051033 54 319 0.0 1.0 0.00 0.00 0.00 81 1022.8
20260906050543 54 317 1.0 1.0 0.00 0.00 0.00 81 1022.8
20260906050031 54 300 0.0 2.0 0.00 0.00 0.00 81 1022.7
20260906045547 54 300 0.0 2.0 0.00 0.00 0.00 80 1022.7
20260906045041 54 309 1.0 2.0 0.00 0.00 0.00 80 1022.6
20260906044530 55 311 1.0 1.0 0.00 0.00 0.00 79 1022.6
20260906044101 55 332 0.0 2.0 0.00 0.00 0.00 78 1022.5
20260906043556 55 360 1.0 2.0 0.00 0.00 0.00 78 1022.3
20260906043102 55 15 1.0 2.0 0.00 0.00 0.00 78 1022.4
20260906042531 55 351 1.0 1.0 0.00 0.00 0.00 78 1022.5
20260906042042 55 12 1.0 1.0 0.00 0.00 0.00 78 1022.5
20260906041533 55 27 1.0 2.0 0.00 0.00 0.00 77 1022.6
20260906041028 55 360 1.0 2.0 0.00 0.00 0.00 77 1022.7
20260906040543 55 355 1.0 1.0 0.00 0.00 0.00 77 1022.7
20260906040029 55 355 0.0 2.0 0.00 0.00 0.00 77 1022.8
20260906035529 55 355 0.0 2.0 0.00 0.00 0.00 77 1022.8
20260906035045 55 342 0.0 3.0 0.00 0.00 0.00 77 1022.7
20260906034534 55 14 1.0 3.0 0.00 0.00 0.00 76 1022.6
20260906034105 55 14 1.0 3.0 0.00 0.00 0.00 76 1022.6
20260906033536 55 34 1.0 2.0 0.00 0.00 0.00 76 1022.7
20260906033028 56 26 1.0 2.0 0.00 0.00 0.00 76 1022.8
20260906032543 56 22 1.0 2.0 0.00 0.00 0.00 76 1022.9
20260906032035 56 47 1.0 2.0 0.00 0.00 0.00 75 1022.9
20260906031531 56 15 0.0 3.0 0.00 0.00 0.00 75 1023.0
20260906031043 56 350 0.0 3.0 0.00 0.00 0.00 75 1023.0
20260906030532 56 15 2.0 3.0 0.00 0.00 0.00 74 1023.0
20260906030032 57 23 1.0 3.0 0.00 0.00 0.00 74 1023.0
20260906025608 57 25 1.0 2.0 0.00 0.00 0.00 73 1023.0
20260906025039 57 32 1.0 2.0 0.00 0.00 0.00 73 1023.1
20260906024534 57 355 0.0 2.0 0.00 0.00 0.00 73 1023.1
20260906024046 57 10 1.0 2.0 0.00 0.00 0.00 73 1023.1
20260906023541 57 5 1.0 2.0 0.00 0.00 0.00 73 1023.1
20260906023031 57 325 1.0 3.0 0.00 0.00 0.00 73 1023.3
20260906022544 57 5 1.0 3.0 0.00 0.00 0.00 73 1023.2
20260906022042 57 23 1.0 2.0 0.00 0.00 0.00 72 1023.1
20260906021534 58 9 1.0 2.0 0.00 0.00 0.00 72 1023.2
20260906021045 58 360 1.0 2.0 0.00 0.00 0.00 73 1023.1
20260906020539 58 11 1.0 1.0 0.00 0.00 0.00 72 1023.1
20260906020028 58 341 0.0 2.0 0.00 0.00 0.00 72 1023.1
20260906015546 58 355 1.0 2.0 0.00 0.00 0.00 72 1023.2
20260906015035 58 5 1.0 2.0 0.00 0.00 0.00 73 1023.2
20260906014544 58 12 1.0 2.0 0.00 0.00 0.00 73 1023.2
20260906014035 58 5 1.0 2.0 0.00 0.00 0.00 73 1023.3
20260906013546 58 348 1.0 1.0 0.00 0.00 0.00 73 1023.4
20260906013028 58 355 1.0 2.0 0.00 0.00 0.00 73 1023.4
20260906012539 58 339 1.0 2.0 0.00 0.00 0.00 73 1023.4
20260906012031 58 321 0.0 1.0 0.00 0.00 0.00 74 1023.4
20260906011539 58 328 0.0 1.0 0.00 0.00 0.00 73 1023.4
20260906011031 58 342 0.0 1.0 0.00 0.00 0.00 72 1023.4
20260906010545 58 331 1.0 1.0 0.00 0.00 0.00 71 1023.4
20260906010107 58 344 0.0 1.0 0.00 0.00 0.00 71 1023.4
20260906005536 59 344 0.0 2.0 0.00 0.00 0.00 70 1023.4
20260906005044 59 5 1.0 2.0 0.00 0.00 0.00 70 1023.4
20260906004535 59 9 1.0 2.0 0.00 0.00 0.00 70 1023.3
20260906004032 59 355 0.0 1.0 0.00 0.00 0.00 70 1023.5
20260906003547 59 9 0.0 1.0 0.00 0.00 0.00 69 1023.5
20260906003038 59 9 0.0 2.0 0.00 0.00 0.00 69 1023.4
20260906002532 59 11 1.0 2.0 0.00 0.00 0.00 70 1023.5
20260906002036 59 5 1.0 2.0 0.00 0.00 0.00 69 1023.6
20260906001531 59 360 1.0 2.0 0.00 0.00 0.00 69 1023.6
20260906001050 59 20 1.0 2.0 0.00 0.00 0.00 69 1023.6
20260906000526 60 19 2.0 2.0 0.00 0.00 0.00 70 1023.6
20260906000049 60 9 1.0 2.0 0.00 0.00 0.00 71 1023.6
20260905235547 60 348 1.0 1.0 0.00 0.00 0.00 71 1023.6
20260905235038 60 355 0.0 1.0 0.00 0.00 0.00 71 1023.6
20260905234531 61 355 1.0 1.0 0.00 0.00 0.00 70 1023.6
20260905234038 61 347 0.0 1.0 0.00 0.00 0.00 70 1023.6
20260905233533 61 350 0.0 1.0 0.00 0.00 0.00 69 1023.6
20260905233045 61 349 0.0 1.0 0.00 0.00 0.00 69 1023.6
20260905232535 61 350 1.0 1.0 0.00 0.00 0.00 68 1023.6
20260905232031 61 5 0.0 1.0 0.00 0.00 0.00 68 1023.5
20260905231541 61 11 1.0 1.0 0.00 0.00 0.00 69 1023.6
20260905231034 61 297 0.0 1.0 0.00 0.00 0.00 69 1023.6
20260905230547 61 296 1.0 1.0 0.00 0.00 0.00 69 1023.6
20260905230036 61 342 0.0 1.0 0.00 0.00 0.00 68 1023.6
20260905225551 62 324 0.0 1.0 0.00 0.00 0.00 68 1023.5
20260905225028 62 344 0.0 1.0 0.00 0.00 0.00 67 1023.5
20260905224544 62 346 0.0 1.0 0.00 0.00 0.00 66 1023.5
20260905224035 62 355 0.0 1.0 0.00 0.00 0.00 66 1023.5
20260905223531 62 344 0.0 1.0 0.00 0.00 0.00 65 1023.5
20260905223106 62 336 0.0 1.0 0.00 0.00 0.00 65 1023.4
20260905222539 62 341 0.0 0.0 0.00 0.00 0.00 65 1023.4
20260905222105 62 340 0.0 1.0 0.00 0.00 0.00 64 1023.4
20260905221537 63 340 0.0 1.0 0.00 0.00 0.00 65 1023.3
20260905221054 63 346 0.0 1.0 0.00 0.00 0.00 63 1023.3
20260905220547 63 355 0.0 1.0 0.00 0.00 0.00 62 1023.3
20260905220037 63 360 0.0 1.0 0.00 0.00 0.00 63 1023.2
20260905215550 63 9 0.0 2.0 0.00 0.00 0.00 62 1023.3
20260905215046 64 9 1.0 2.0 0.00 0.00 0.00 62 1023.3
20260905214539 64 5 0.0 1.0 0.00 0.00 0.00 62 1023.3
20260905214032 64 350 0.0 1.0 0.00 0.00 0.00 61 1023.3
20260905213531 64 350 0.0 1.0 0.00 0.00 0.00 61 1023.3
20260905213046 65 350 0.0 1.0 0.00 0.00 0.00 61 1023.4
20260905212543 65 350 0.0 1.0 0.00 0.00 0.00 60 1023.3
20260905212036 65 355 0.0 0.0 0.00 0.00 0.00 59 1023.4
20260905211548 65 355 0.0 1.0 0.00 0.00 0.00 60 1023.2
20260905211038 65 355 0.0 1.0 0.00 0.00 0.00 60 1023.3
20260905210549 65 355 0.0 1.0 0.00 0.00 0.00 59 1023.2
20260905210039 65 350 1.0 1.0 0.00 0.00 0.00 59 1023.2
20260905205534 66 351 0.0 1.0 0.00 0.00 0.00 59 1023.2
20260905205055 66 355 0.0 1.0 0.00 0.00 0.00 59 1023.1
20260905204529 66 355 0.0 1.0 0.00 0.00 0.00 58 1023.1
20260905204055 66 355 0.0 1.0 0.00 0.00 0.00 57 1023.0
20260905203530 66 349 0.0 1.0 0.00 0.00 0.00 58 1023.0
20260905203038 66 348 0.0 0.0 0.00 0.00 0.00 58 1023.0
20260905202532 66 348 0.0 1.0 0.00 0.00 0.00 57 1023.0
20260905202029 67 349 0.0 1.0 0.00 0.00 0.00 57 1023.0
20260905201541 67 342 0.0 1.0 0.00 0.00 0.00 55 1023.0
20260905201032 67 14 0.0 1.0 0.00 0.00 0.00 54 1023.0
20260905200551 67 14 0.0 1.0 0.00 0.00 0.00 54 1023.0
20260905200041 68 17 0.0 1.0 0.00 0.00 0.00 54 1022.9
20260905195600 68 19 0.0 1.0 0.00 0.00 0.00 52 1023.0
20260905195034 68 51 0.0 2.0 0.00 0.00 0.00 52 1022.9
20260905194532 69 51 0.0 2.0 0.00 0.00 0.00 51 1022.9
20260905194027 69 347 0.0 1.0 0.00 0.00 0.00 51 1022.9
20260905193528 70 349 0.0 1.0 0.00 0.00 0.00 52 1022.9
20260905193045 70 347 0.0 2.0 0.00 0.00 0.00 51 1022.8
20260905192540 70 346 1.0 2.0 0.00 0.00 0.00 49 1022.7
20260905192035 70 342 0.0 2.0 0.00 0.00 0.00 49 1022.6
20260905191529 71 347 1.0 2.0 0.00 0.00 0.00 49 1022.7
20260905191046 71 351 0.0 3.0 0.00 0.00 0.00 48 1022.7
20260905190537 71 342 1.0 3.0 0.00 0.00 0.00 48 1022.7
20260905190030 72 360 1.0 2.0 0.00 0.00 0.00 47 1022.6
20260905185544 72 360 1.0 2.0 0.00 0.00 0.00 47 1022.5
20260905185041 72 355 1.0 2.0 0.00 0.00 0.00 47 1022.5
20260905184541 73 355 1.0 1.0 0.00 0.00 0.00 46 1022.4
20260905184039 73 360 0.0 2.0 0.00 0.00 0.00 46 1022.4
20260905183533 73 9 1.0 3.0 0.00 0.00 0.00 45 1022.4
20260905183031 74 16 1.0 3.0 0.00 0.00 0.00 45 1022.4
20260905182606 74 5 2.0 3.0 0.00 0.00 0.00 45 1022.4
20260905182043 75 9 1.0 3.0 0.00 0.00 0.00 45 1022.5
20260905181542 75 16 1.0 3.0 0.00 0.00 0.00 45 1022.4
20260905181036 75 11 1.0 4.0 0.00 0.00 0.00 44 1022.4
20260905180549 76 11 2.0 4.0 0.00 0.00 0.00 44 1022.5
20260905180039 76 22 2.0 5.0 0.00 0.00 0.00 43 1022.5
20260905175531 76 360 2.0 5.0 0.00 0.00 0.00 43 1022.5
20260905175029 76 5 2.0 6.0 0.00 0.00 0.00 43 1022.5
20260905174542 77 17 4.0 6.0 0.00 0.00 0.00 42 1022.4
20260905174036 77 5 3.0 8.0 0.00 0.00 0.00 42 1022.4
20260905173529 77 355 3.0 8.0 0.00 0.00 0.00 42 1022.4
20260905173052 77 5 3.0 6.0 0.00 0.00 0.00 42 1022.5
20260905172543 78 5 2.0 6.0 0.00 0.00 0.00 42 1022.4
20260905172034 78 338 3.0 5.0 0.00 0.00 0.00 41 1022.4
20260905171553 78 40 2.0 5.0 0.00 0.00 0.00 42 1022.4
20260905171032 78 5 2.0 6.0 0.00 0.00 0.00 41 1022.4
20260905170545 79 331 3.0 10.0 0.00 0.00 0.00 40 1022.4
20260905170041 79 346 4.0 10.0 0.00 0.00 0.00 39 1022.4
20260905165535 79 348 3.0 7.0 0.00 0.00 0.00 40 1022.4
20260905165050 80 360 2.0 8.0 0.00 0.00 0.00 39 1022.4
20260905164530 80 337 4.0 8.0 0.00 0.00 0.00 39 1022.3
20260905164058 80 23 1.0 8.0 0.00 0.00 0.00 39 1022.3
20260905163600 80 360 2.0 8.0 0.00 0.00 0.00 39 1022.1
20260905163036 80 360 4.0 10.0 0.00 0.00 0.00 40 1022.2
20260905162532 79 360 5.0 10.0 0.00 0.00 0.00 40 1022.3
20260905162027 80 5 4.0 9.0 0.00 0.00 0.00 39 1022.3
20260905161539 80 9 5.0 9.0 0.00 0.00 0.00 39 1022.4
20260905161028 80 338 2.0 9.0 0.00 0.00 0.00 39 1022.3
20260905160549 80 53 0.0 10.0 0.00 0.00 0.00 42 1022.3
20260905160036 80 351 6.0 10.0 0.00 0.00 0.00 39 1022.3
20260905155547 80 42 5.0 8.0 0.00 0.00 0.00 39 1022.3
20260905155036 80 16 1.0 10.0 0.00 0.00 0.00 40 1022.3
20260905154546 80 325 2.0 12.0 0.00 0.00 0.00 39 1022.4
20260905154039 81 360 5.0 12.0 0.00 0.00 0.00 39 1022.3
20260905153533 82 342 3.0 10.0 0.00 0.00 0.00 38 1022.3
20260905153026 82 319 3.0 10.0 0.00 0.00 0.00 40 1022.4
20260905152542 81 313 3.0 6.0 0.00 0.00 0.00 39 1022.3
20260905152032 81 14 2.0 5.0 0.00 0.00 0.00 41 1022.4
20260905151554 81 5 1.0 8.0 0.00 0.00 0.00 40 1022.4
20260905151027 81 348 3.0 11.0 0.00 0.00 0.00 41 1022.6
20260905150535 81 5 4.0 11.0 0.00 0.00 0.00 40 1022.6
20260905150040 81 329 1.0 9.0 0.00 0.00 0.00 41 1022.6
20260905145557 81 5 2.0 9.0 0.00 0.00 0.00 41 1022.6
20260905145027 81 335 2.0 6.0 0.00 0.00 0.00 41 1022.6
20260905144547 82 25 2.0 10.0 0.00 0.00 0.00 41 1022.6
20260905144042 82 190 1.0 10.0 0.00 0.00 0.00 42 1022.7
20260905143531 81 360 5.0 10.0 0.00 0.00 0.00 41 1022.7
20260905143031 81 307 2.0 9.0 0.00 0.00 0.00 42 1022.7
20260905142545 81 5 3.0 9.0 0.00 0.00 0.00 43 1022.7
20260905142042 80 313 2.0 6.0 0.00 0.00 0.00 43 1022.7
20260905141539 80 49 2.0 9.0 0.00 0.00 0.00 43 1022.8
20260905141036 80 5 4.0 9.0 0.00 0.00 0.00 43 1022.9
20260905140614 80 47 3.0 9.0 0.00 0.00 0.00 44 1022.9
20260905140042 80 344 2.0 9.0 0.00 0.00 0.00 43 1022.9
20260905135533 80 320 4.0 9.0 0.00 0.00 0.00 43 1022.9
20260905135055 80 355 4.0 9.0 0.00 0.00 0.00 44 1023.0
20260905134529 81 38 0.0 9.0 0.00 0.00 0.00 42 1022.9
20260905134054 80 308 2.0 9.0 0.00 0.00 0.00 44 1023.0
20260905133554 80 9 5.0 9.0 0.00 0.00 0.00 44 1023.0